CHEFSAT 2 (44044 NORAD) Tracking and Keplerian Element Data

This shows tracking and keplerian element data for the satellite.

Feedback or suggestion? Click here.




ElementValue
Catalog44044
NameCHEFSAT 2
Epoch Orbit19217
Epoch Day193.0731314
Epoch Year2022
RAAN276.0677
Inclination51.6101
Eccentricity0.0013183
Argument of Perigee333.5063
Mean Anonmoly26.5277
Mean Motion16.13204367
Decay Rate0.02298754
L11 44044U 18092E 22193.07313140 .02298754 60887-2 20825-2 0 9999
L22 44044 51.6101 276.0677 0013183 333.5063 26.5277 16.13204367192178



Live tracking and technical data element details for CHEFSAT 2 (NORAD 44044). CHEFSAT 2 can be tracked NOW for your location showing map with azimuth and elevation plus other details from your city location.







IsCatalogInMostPopularTable: catalog: 44044, numindb: 330
Update: records affected: 1



GetName: 44044 CHEFSAT 2

Hit Count: updated at: Thu, 15 May 2025 19:28:00 GMT